Regional Weather Roundup
Issued by NWS

Home | Current Version | Previous Version | Text Only | Print | Product List | Glossary Off
Versions: 1 2 3 4 5 6 7 8 9 10 11 12 13 14 15 16 17 18 19 20 21 22 23 24 25 26 27 28 29 30 31 32 33 34 35 36 37 38 39 40 41 42 43 44 45 46 47 48 49 50

000
ASUS43 KMKX 241800
RWRWI

WISCONSIN REGIONAL WEATHER ROUNDUP
NATIONAL WEATHER SERVICE MILWAUKEE/SULLIVAN WI
100 PM CDT WED MAY 24 2017

NOTE: "FAIR" INDICATES FEW OR NO CLOUDS BELOW 12,000 FEET WITH NO
SIGNIFICANT WEATHER AND/OR OBSTRUCTIONS TO VISIBILITY.

WIZ001-002-006>008-014>016-023>028-241900-
NORTHWEST WISCONSIN

CITY           SKY/WX    TMP DP  RH WIND       PRES   REMARKS
SUPERIOR ARPT  NOT AVBL
ASHLAND        PTSUNNY   54  43  66 N13       29.79F
6HR MIN TEMP:  43; 6HR MAX TEMP:  55;

HAYWARD          N/A     58  42  55 N9        29.75F
6HR MIN TEMP:  48; 6HR MAX TEMP:  58;

SIREN          CLOUDY    57  43  58 E5        29.76S
CUMBERLAND     CLOUDY    55  43  62 NE9       29.74F
RICE LAKE      CLOUDY    56  45  68 NE9       29.75F
CHETEK         CLOUDY    56  46  67 E6        29.73F
LADYSMITH      CLOUDY    56  45  67 NE8       29.75S
EAU CLAIRE     NOT AVBL
MENOMONIE      CLOUDY    58  44  60 N10       29.72F
NEW RICHMOND   CLOUDY    57  43  60 NE13      29.74S
OSCEOLA        CLOUDY    57  44  63 NE9       29.77S
$$

WIZ003>005-009-010-017-018-241900-
NORTH CENTRAL WISCONSIN

CITY           SKY/WX    TMP DP  RH WIND       PRES   REMARKS
MANITOWISH WTR CLOUDY    50  46  84 NE8       29.75S
ARBOR VITAE    CLOUDY    52  47  82 NE6       29.74S
WOODRUFF       CLOUDY    52  47  82 NE6       29.74S
RHINELANDER    CLOUDY    51  47  86 NE6       29.74F
6HR MIN TEMP:  47; 6HR MAX TEMP:  51; 6HR PCP:  0.01;

EAGLE RIVER    LGT RAIN  49  45  85 NE9       29.74F
LAND O LAKES   DRIZZLE   50  46  88 NE3       29.77F
PHILLIPS       CLOUDY    53  44  73 NE10      29.74S
TOMAHAWK       DRIZZLE   50  45  84 N5        29.74S
MEDFORD        CLOUDY    52  46  79 NE7       29.72S
MERRILL        CLOUDY    52  48  86 NE7       29.72S
$$

WIZ029-030-035-036-043>047-241900-
CENTRAL WISCONSIN

CITY           SKY/WX    TMP DP  RH WIND       PRES   REMARKS
WAUSAU         CLOUDY    52  48  86 NE7       29.69S
6HR MIN TEMP:  47; 6HR MAX TEMP:  52; 6HR PCP:  0.02;

MOSINEE        CLOUDY    52  52 100 NE10      29.71S
MARSHFIELD     CLOUDY    53  47  79 NE9       29.69S
6HR MIN TEMP:  47; 6HR MAX TEMP:  53; 6HR PCP: TRACE;

STEVENS POINT  CLOUDY    50  49  94 NE10      29.70S
WAUPACA        CLOUDY    54  50  86 NE6       29.70S
WAUTOMA        CLOUDY    52  49  89 NE9       29.69S
6HR MIN TEMP:  48; 6HR MAX TEMP:  52;

WISC RAPIDS    CLOUDY    54  49  83 NE8       29.70S
6HR MIN TEMP:  49; 6HR MAX TEMP:  54;

CAMP DOUGLAS   NOT AVBL
$$

WIZ011>013-019>022-031-037>040-048>050-241900-
NORTHEAST WISCONSIN

CITY           SKY/WX    TMP DP  RH WIND       PRES   REMARKS
ANTIGO         CLOUDY    50  48  91 NE13      29.71F
SHAWANO        CLOUDY    52  49  90 NE8       29.71S
OCONTO         CLOUDY    50  49  93 NE6       29.71S
STURGEON BAY   CLOUDY    50  49  96 NE6       29.71S
6HR MIN TEMP:  48; 6HR MAX TEMP:  50;

GREEN BAY      CLOUDY    51  51 100 NE12      29.70S
6HR MIN TEMP:  49; 6HR MAX TEMP:  51; 6HR PCP:  0.02;

MANITOWOC      NOT AVBL
APPLETON       CLOUDY    52  50  93 NE13      29.67S
CLINTONVILLE   CLOUDY    50  46  87 NE8       29.70S
OSHKOSH        CLOUDY    53  50  89 N14G20    29.66S FOG
6HR MIN TEMP:  50; 6HR MAX TEMP:  53;

$$

WIZ032>034-041-042-053>061-241900-
SOUTHWEST WISCONSIN

CITY           SKY/WX    TMP DP  RH WIND       PRES   REMARKS
LA CROSSE      CLOUDY    58  49  72 N8        29.69F
6HR MIN TEMP:  53; 6HR MAX TEMP:  58;

SPARTA         CLOUDY    54  50  86 NE8       29.70S
VIROQUA        CLOUDY    51  49  91 MISG      29.69R
BOSCOBEL       CLOUDY    60  49  66 N8        29.66F
6HR MIN TEMP:  52; 6HR MAX TEMP:  60;

PRAIRIE DU CHI CLOUDY    56  47  71 NE5       29.67S
PLATTEVILLE    CLOUDY    56  52  85 NE13      29.65S
$$

WIZ056-057-062-063-064-067-068-241900-
SOUTH CENTRAL WISCONSIN

CITY           SKY/WX    TMP DP  RH WIND       PRES   REMARKS
REEDSBURG      CLOUDY    53  51  92 NE6       29.67S
BARABOO/DELLS  CLOUDY    52  48  86 NE5       29.67S
LONE ROCK      CLOUDY    56  49  77 NE10      29.66S
MINERAL POINT  CLOUDY    55  52  88 N10       29.65S
MADISON        CLOUDY    53  51  93 N13       29.64S
6HR MIN TEMP:  50; 6HR MAX TEMP:  53; 6HR PCP:  0.01;

MIDDLETON      CLOUDY    54  52  95 N9        29.66S
WATERTOWN      CLOUDY    55  53  96 N9        29.62F
MONROE         CLOUDY    52  52 100 N9G16     29.63S
JANESVILLE     CLOUDY    57  55  94 N9G18     29.60F
$$

WIZ051-052-058>065-066-070>072-241900-
SOUTHEAST WISCONSIN

CITY           SKY/WX    TMP DP  RH WIND       PRES   REMARKS
MILWAUKEE      CLOUDY    56  52  86 N17G23    29.60F
6HR MIN TEMP:  48; 6HR MAX TEMP:  56; 6HR PCP:  0.11;

WAUKESHA       CLOUDY    55  52  88 NE10G16   29.62S
MILWAUKEE/TIMM CLOUDY    55  48  76 NE16      29.62S
RACINE         CLOUDY    55  49  80 N18G24    29.61F
6HR MIN TEMP:  47; 6HR MAX TEMP:  55; 6HR PCP:  0.08;

KENOSHA        CLOUDY    57  50  77 NE14G22   29.59F
6HR MIN TEMP:  50; 6HR MAX TEMP:  58; 6HR PCP:  0.05;

FOND DU LAC    CLOUDY    54  50  86 N14       29.66S
6HR MIN TEMP:  50; 6HR MAX TEMP:  55; 6HR PCP: TRACE;

SHEBOYGAN      CLOUDY    55  54  96 NE13      29.64F
6HR MIN TEMP:  47; 6HR MAX TEMP:  55; 6HR PCP:  0.12;

WEST BEND      CLOUDY    54  54 100 N8G16     29.63S
JUNEAU         CLOUDY    54  51  89 N8        29.65S
$$

LSZ147-162-241900-
LAKE SUPERIOR

STATION/POSITION TIME  TEMP    WIND        PRES    WAVE
                       AIR SEA DIR/SP/G            HT/PER
                 (UTC) (F)     (DEG/KT/KT) (MB)    (FT/S)
W MID LAKE BUOY  1650   40 37   20/ 12/ 14 1010.2F   1/ 3
DEVILS ISLAND    1700   42      50/ 14/ 16 1010.2F
SAXON HARBOR     1740   43      30/  8/  9 1009.1F
$$

LMZ867-665-643>646-241900-
LAKE MICHIGAN

STATION/POSITION TIME  TEMP    WIND        PRES    WAVE
                       AIR SEA DIR/SP/G            HT/PER
                 (UTC) (F)     (DEG/KT/KT) (MB)    (FT/S)
CHAMBERS ISLAND  1740   48      10/ 12/ 13 1006.1S
N MID LAKE BUOY  1650   43 40   60/ 12/ 12 1006.7F   1/ 3
NORTHPORT PIER   1740   48      40/  9/ 11 1006.1F
KEWAUNEE LAKESHO 1730   47      30/ 10/ 14 1005.1S
SHEBOYGAN LAKESH 1700   46      10/ 16/ 19 1004.3F
PORT WASHINGTON  1730   54      30/ 10/ 16 1004.4S
MILWAUKEE LAKESH 1730   49     360/ 17/ 20   N/A
S MID LAKE BUOY  1650   49 45   20/ 17/ 19 1001.3F   2/ 4
KENOSHA   LAKESH 1700   50      10/ 19/ 25 1002.4
$$

TC  - TEMPERATURE IN CELSIUS
VSB - VISIBILITY IN STATUTE MILES
WCI - WIND CHILL INDEX
HX  - HEAT INDEX




USA.gov is the U.S. government's official web portal to all federal, state and local government web resources and services.